Time,TemperatureF,DewpointF,PressureIn,WindDirection,WindDirectionDegrees,WindSpeedMPH,WindSpeedGustMPH,Humidity,HourlyPrecipIn,Conditions,Clouds,dailyrainin,SolarRadiationWatts/m^2,SoftwareType,DateUTC
2013-10-04 00:00:00,75.8,67.3,29.53,SE,138,9.0,14.0,75,0.00,,SKC,0.00,0.00,VWS V14.01,2013-10-04 05:00:00,
2013-10-04 00:03:00,75.7,67.2,29.53,SSE,157,10.0,19.0,75,0.00,,SKC,0.00,0.00,VWS V14.01,2013-10-04 05:03:00,
2013-10-04 00:05:00,75.6,67.5,29.53,SE,146,6.0,19.0,76,0.00,,SKC,0.00,0.00,VWS V14.01,2013-10-04 05:05:00,
2013-10-04 00:06:00,75.6,67.5,29.53,SE,146,10.0,19.0,76,0.00,,SKC,0.00,0.00,VWS V14.01,2013-10-04 05:06:00,
2013-10-04 00:08:00,75.5,67.4,29.53,SE,146,8.0,19.0,76,0.00,,SKC,0.00,0.00,VWS V14.01,2013-10-04 05:08:00,
2013-10-04 00:10:00,75.4,67.3,29.53,SE,145,10.0,19.0,76,0.00,,SKC,0.00,0.00,VWS V14.01,2013-10-04 05:10:00,
2013-10-04 00:12:00,75.4,67.3,29.52,SE,141,10.0,11.0,76,0.00,,SKC,0.00,0.00,VWS V14.01,2013-10-04 05:12:00,
2013-10-04 00:14:00,75.3,67.2,29.52,SE,142,13.0,17.0,76,0.00,,SKC,0.00,0.00,VWS V14.01,2013-10-04 05:14:00,
2013-10-04 00:15:00,75.3,67.2,29.52,SE,142,4.0,17.0,76,0.00,,SKC,0.00,0.00,VWS V14.01,2013-10-04 05:15:00,
2013-10-04 00:17:00,75.3,67.2,29.52,SE,142,10.0,17.0,76,0.00,,SKC,0.00,0.00,VWS V14.01,2013-10-04 05:17:00,
2013-10-04 00:18:00,75.2,67.1,29.52,SE,142,6.0,17.0,76,0.00,,SKC,0.00,0.00,VWS V14.01,2013-10-04 05:18:00,
2013-10-04 00:20:00,75.1,67.4,29.52,SE,142,12.0,17.0,77,0.00,,SKC,0.00,0.00,VWS V14.01,2013-10-04 05:20:00,
2013-10-04 00:21:00,75.1,67.4,29.52,SE,142,7.0,17.0,77,0.00,,SKC,0.00,0.00,VWS V14.01,2013-10-04 05:21:00,
2013-10-04 00:25:00,74.9,67.2,29.52,SE,140,6.0,19.0,77,0.00,,SKC,0.00,0.00,VWS V14.01,2013-10-04 05:25:00,
2013-10-04 00:26:00,74.9,67.2,29.52,SE,140,6.0,19.0,77,0.00,,SKC,0.00,0.00,VWS V14.01,2013-10-04 05:26:00,
2013-10-04 00:30:00,74.8,67.1,29.53,SE,145,1.0,19.0,77,0.00,,SKC,0.00,0.00,VWS V14.01,2013-10-04 05:30:00,
2013-10-04 00:31:00,74.8,67.1,29.53,SE,145,2.0,19.0,77,0.00,,SKC,0.00,0.00,VWS V14.01,2013-10-04 05:31:00,
2013-10-04 00:36:00,74.7,67.0,29.53,SE,144,6.0,14.0,77,0.00,,SKC,0.00,0.00,VWS V14.01,2013-10-04 05:36:00,
2013-10-04 00:40:00,74.6,66.9,29.52,South,173,6.0,15.0,77,0.00,,SKC,0.00,0.00,VWS V14.01,2013-10-04 05:40:00,
2013-10-04 00:41:00,74.6,66.9,29.52,South,173,10.0,15.0,77,0.00,,SKC,0.00,0.00,VWS V14.01,2013-10-04 05:41:00,
2013-10-04 00:46:00,74.5,66.8,29.53,SSE,165,7.0,16.0,77,0.00,,SKC,0.00,0.00,VWS V14.01,2013-10-04 05:46:00,
2013-10-04 00:50:00,74.5,66.8,29.52,South,169,14.0,16.0,77,0.00,,SKC,0.00,0.00,VWS V14.01,2013-10-04 05:50:00,
2013-10-04 00:51:00,74.5,66.8,29.52,SSE,168,4.0,16.0,77,0.00,,SKC,0.00,0.00,VWS V14.01,2013-10-04 05:51:00,
2013-10-04 00:56:00,74.5,66.8,29.52,SSE,164,6.0,17.0,77,0.00,,SKC,0.00,0.00,VWS V14.01,2013-10-04 05:56:00,
2013-10-04 01:00:00,74.4,66.7,29.52,South,180,10.0,17.0,77,0.00,,SKC,0.00,0.00,VWS V14.01,2013-10-04 06:00:00,
2013-10-04 01:01:00,74.4,66.7,29.52,South,180,7.0,17.0,77,0.00,,SKC,0.00,0.00,VWS V14.01,2013-10-04 06:01:00,
2013-10-04 01:06:00,74.4,66.7,29.52,South,172,6.0,14.0,77,0.00,,SKC,0.00,0.00,VWS V14.01,2013-10-04 06:06:00,
2013-10-04 01:10:00,74.3,66.6,29.52,SE,138,8.0,19.0,77,0.00,,SKC,0.00,0.00,VWS V14.01,2013-10-04 06:10:00,
2013-10-04 01:11:00,74.3,66.6,29.52,SE,146,11.0,19.0,77,0.00,,SKC,0.00,0.00,VWS V14.01,2013-10-04 06:11:00,
2013-10-04 01:16:00,74.2,66.5,29.52,SSE,150,8.0,15.0,77,0.00,,SKC,0.00,0.00,VWS V14.01,2013-10-04 06:16:00,
2013-10-04 01:20:00,74.1,66.4,29.52,SSE,155,11.0,18.0,77,0.00,,SKC,0.00,0.00,VWS V14.01,2013-10-04 06:20:00,
2013-10-04 01:21:00,74.0,66.3,29.52,SSE,157,8.0,18.0,77,0.00,,SKC,0.00,0.00,VWS V14.01,2013-10-04 06:21:00,
2013-10-04 01:26:00,74.0,66.3,29.52,SE,128,8.0,17.0,77,0.00,,SKC,0.00,0.00,VWS V14.01,2013-10-04 06:26:00,
2013-10-04 01:30:00,73.9,66.2,29.52,South,169,2.0,19.0,77,0.00,,SKC,0.00,0.00,VWS V14.01,2013-10-04 06:30:00,
2013-10-04 01:31:00,73.9,66.2,29.52,South,169,2.0,19.0,77,0.00,,SKC,0.00,0.00,VWS V14.01,2013-10-04 06:31:00,
2013-10-04 01:36:00,73.7,66.1,29.52,SE,140,6.0,15.0,77,0.00,,SKC,0.00,0.00,VWS V14.01,2013-10-04 06:36:00,
2013-10-04 01:40:00,73.6,66.3,29.52,SE,138,7.0,17.0,78,0.00,,SKC,0.00,0.00,VWS V14.01,2013-10-04 06:40:00,
2013-10-04 01:41:00,73.6,66.3,29.52,SE,138,8.0,17.0,78,0.00,,SKC,0.00,0.00,VWS V14.01,2013-10-04 06:41:00,
2013-10-04 01:46:00,73.5,66.2,29.52,SSE,155,2.0,12.0,78,0.00,,SKC,0.00,0.00,VWS V14.01,2013-10-04 06:46:00,
2013-10-04 01:50:00,73.3,66.0,29.52,SSE,165,8.0,15.0,78,0.00,,SKC,0.00,0.00,VWS V14.01,2013-10-04 06:50:00,
2013-10-04 01:51:00,73.4,66.1,29.52,SSE,166,8.0,15.0,78,0.00,,SKC,0.00,0.00,VWS V14.01,2013-10-04 06:51:00,
2013-10-04 01:56:00,73.3,66.4,29.52,SSE,153,5.0,14.0,79,0.00,,SKC,0.00,0.00,VWS V14.01,2013-10-04 06:56:00,
2013-10-04 02:00:00,73.1,66.2,29.52,South,173,4.0,14.0,79,0.00,,SKC,0.00,0.00,VWS V14.01,2013-10-04 07:00:00,
2013-10-04 02:01:00,73.1,66.2,29.52,South,173,5.0,14.0,79,0.00,,SKC,0.00,0.00,VWS V14.01,2013-10-04 07:01:00,
2013-10-04 02:06:00,73.0,66.5,29.52,SSE,153,5.0,15.0,80,0.00,,SKC,0.00,0.00,VWS V14.01,2013-10-04 07:06:00,
2013-10-04 02:10:00,72.9,66.7,29.52,ESE,113,11.0,15.0,81,0.00,,SKC,0.00,0.00,VWS V14.01,2013-10-04 07:10:00,
2013-10-04 02:11:00,72.9,66.7,29.52,SE,142,12.0,15.0,81,0.00,,SKC,0.00,0.00,VWS V14.01,2013-10-04 07:11:00,
2013-10-04 02:16:00,72.8,66.6,29.52,SSE,163,7.0,15.0,81,0.00,,SKC,0.00,0.00,VWS V14.01,2013-10-04 07:16:00,
2013-10-04 02:20:00,72.7,66.9,29.52,SSE,159,4.0,15.0,82,0.00,,SKC,0.00,0.00,VWS V14.01,2013-10-04 07:20:00,
2013-10-04 02:21:00,72.7,66.9,29.52,SSE,159,6.0,15.0,82,0.00,,SKC,0.00,0.00,VWS V14.01,2013-10-04 07:21:00,
2013-10-04 02:26:00,72.6,67.2,29.52,SSE,157,10.0,19.0,83,0.00,,SKC,0.00,0.00,VWS V14.01,2013-10-04 07:26:00,
2013-10-04 02:30:00,72.4,66.9,29.52,SSE,155,7.0,19.0,83,0.00,,SKC,0.00,0.00,VWS V14.01,2013-10-04 07:30:00,
2013-10-04 02:31:00,72.4,66.9,29.52,SSE,155,6.0,19.0,83,0.00,,SKC,0.00,0.00,VWS V14.01,2013-10-04 07:31:00,
2013-10-04 02:36:00,72.3,67.2,29.52,SSE,147,6.0,23.0,84,0.00,,SKC,0.00,0.00,VWS V14.01,2013-10-04 07:36:00,
2013-10-04 02:40:00,72.1,67.0,29.52,SSE,159,8.0,23.0,84,0.00,,SKC,0.00,0.00,VWS V14.01,2013-10-04 07:40:00,
2013-10-04 02:41:00,72.1,67.0,29.52,SSE,157,11.0,23.0,84,0.00,,SKC,0.00,0.00,VWS V14.01,2013-10-04 07:41:00,
2013-10-04 02:46:00,72.1,67.3,29.52,SE,128,9.0,20.0,85,0.00,,SKC,0.00,0.00,VWS V14.01,2013-10-04 07:46:00,
2013-10-04 02:50:00,72.0,67.2,29.52,South,169,9.0,20.0,85,0.00,,SKC,0.00,0.00,VWS V14.01,2013-10-04 07:50:00,
2013-10-04 02:51:00,71.9,67.2,29.52,South,172,6.0,20.0,85,0.00,,SKC,0.00,0.00,VWS V14.01,2013-10-04 07:51:00,
2013-10-04 02:56:00,71.9,67.2,29.53,SSE,158,8.0,15.0,85,0.00,,SKC,0.00,0.00,VWS V14.01,2013-10-04 07:56:00,
2013-10-04 03:00:00,71.9,67.2,29.52,SE,142,8.0,15.0,85,0.00,,SKC,0.00,0.00,VWS V14.01,2013-10-04 08:00:00,
2013-10-04 03:01:00,71.9,67.2,29.52,SE,140,11.0,15.0,85,0.00,,SKC,0.00,0.00,VWS V14.01,2013-10-04 08:01:00,
2013-10-04 03:06:00,71.8,67.1,29.52,SE,130,6.0,13.0,85,0.00,,SKC,0.00,0.00,VWS V14.01,2013-10-04 08:06:00,
2013-10-04 03:10:00,71.7,67.3,29.52,SE,128,7.0,14.0,86,0.00,,SKC,0.00,0.00,VWS V14.01,2013-10-04 08:10:00,
2013-10-04 03:11:00,71.7,67.3,29.52,SE,146,9.0,14.0,86,0.00,,SKC,0.00,0.00,VWS V14.01,2013-10-04 08:11:00,
2013-10-04 03:16:00,71.7,67.3,29.52,SSE,147,0.0,14.0,86,0.00,,SKC,0.00,0.00,VWS V14.01,2013-10-04 08:16:00,
2013-10-04 03:20:00,71.7,67.3,29.52,SE,126,20.0,21.0,86,0.00,,SKC,0.00,0.00,VWS V14.01,2013-10-04 08:20:00,
2013-10-04 03:21:00,71.7,67.3,29.52,South,181,15.0,17.0,86,0.00,,SKC,0.00,0.00,VWS V14.01,2013-10-04 08:21:00,
2013-10-04 03:26:00,71.8,67.4,29.52,ESE,122,12.0,20.0,86,0.00,,SKC,0.00,0.00,VWS V14.01,2013-10-04 08:26:00,
2013-10-04 03:30:00,71.8,67.4,29.52,SE,136,9.0,20.0,86,0.00,,SKC,0.00,0.00,VWS V14.01,2013-10-04 08:30:00,
2013-10-04 03:31:00,71.8,67.4,29.52,SE,146,5.0,20.0,86,0.00,,SKC,0.00,0.00,VWS V14.01,2013-10-04 08:31:00,
2013-10-04 03:36:00,71.9,67.5,29.52,South,169,7.0,12.0,86,0.00,,SKC,0.00,0.00,VWS V14.01,2013-10-04 08:36:00,
2013-10-04 03:40:00,71.9,67.5,29.51,SSE,159,6.0,17.0,86,0.00,,SKC,0.00,0.00,VWS V14.01,2013-10-04 08:40:00,
2013-10-04 03:41:00,71.9,67.5,29.51,SSE,159,5.0,17.0,86,0.00,,SKC,0.00,0.00,VWS V14.01,2013-10-04 08:41:00,
2013-10-04 03:46:00,71.9,67.5,29.51,South,169,7.0,10.0,86,0.00,,SKC,0.00,0.00,VWS V14.01,2013-10-04 08:46:00,
2013-10-04 03:50:00,72.0,67.6,29.51,SE,142,8.0,16.0,86,0.00,,SKC,0.00,0.00,VWS V14.01,2013-10-04 08:50:00,
2013-10-04 03:51:00,71.9,67.5,29.51,SE,142,14.0,14.0,86,0.00,,SKC,0.00,0.00,VWS V14.01,2013-10-04 08:51:00,
2013-10-04 03:56:00,72.0,67.6,29.52,SE,130,0.0,12.0,86,0.00,,SKC,0.00,0.00,VWS V14.01,2013-10-04 08:56:00,
2013-10-04 04:00:00,71.9,67.5,29.52,SSE,154,4.0,12.0,86,0.00,,SKC,0.00,0.00,VWS V14.01,2013-10-04 09:00:00,
2013-10-04 04:01:00,71.9,67.5,29.52,SSE,155,8.0,12.0,86,0.00,,SKC,0.00,0.00,VWS V14.01,2013-10-04 09:01:00,
2013-10-04 04:06:00,71.8,67.4,29.51,SSE,152,1.0,10.0,86,0.00,,SKC,0.00,0.00,VWS V14.01,2013-10-04 09:06:00,
2013-10-04 04:10:00,71.8,67.4,29.51,SSE,153,0.0,10.0,86,0.00,,SKC,0.00,0.00,VWS V14.01,2013-10-04 09:10:00,
2013-10-04 04:11:00,71.7,67.3,29.51,SSE,153,1.0,10.0,86,0.00,,SKC,0.00,0.00,VWS V14.01,2013-10-04 09:11:00,
2013-10-04 04:16:00,71.7,67.3,29.51,SSE,153,1.0,6.0,86,0.00,,SKC,0.00,0.00,VWS V14.01,2013-10-04 09:16:00,
2013-10-04 04:20:00,71.7,67.3,29.51,SE,131,7.0,15.0,86,0.00,,SKC,0.00,0.00,VWS V14.01,2013-10-04 09:20:00,
2013-10-04 04:21:00,71.7,67.3,29.51,SSW,198,9.0,14.0,86,0.00,,SKC,0.00,0.00,VWS V14.01,2013-10-04 09:21:00,
2013-10-04 04:26:00,71.8,67.4,29.51,SE,139,0.0,13.0,86,0.00,,SKC,0.00,0.00,VWS V14.01,2013-10-04 09:26:00,
2013-10-04 04:30:00,71.9,67.5,29.51,SSW,209,0.0,13.0,86,0.00,,SKC,0.00,0.00,VWS V14.01,2013-10-04 09:30:00,
2013-10-04 04:31:00,71.9,67.5,29.51,SSW,209,1.0,13.0,86,0.00,,SKC,0.00,0.00,VWS V14.01,2013-10-04 09:31:00,
2013-10-04 04:36:00,72.0,67.6,29.52,WSW,239,4.0,16.0,86,0.00,,SKC,0.00,0.00,VWS V14.01,2013-10-04 09:36:00,
2013-10-04 04:40:00,72.0,67.2,29.51,SSE,157,5.0,16.0,85,0.00,,SKC,0.00,0.00,VWS V14.01,2013-10-04 09:40:00,
2013-10-04 04:41:00,72.1,67.3,29.51,SSE,157,1.0,16.0,85,0.00,,SKC,0.00,0.00,VWS V14.01,2013-10-04 09:41:00,
2013-10-04 04:46:00,72.1,67.3,29.52,SSE,160,8.0,18.0,85,0.00,,SKC,0.00,0.00,VWS V14.01,2013-10-04 09:46:00,
2013-10-04 04:50:00,72.2,67.4,29.52,SSE,156,0.0,18.0,85,0.00,,SKC,0.00,0.00,VWS V14.01,2013-10-04 09:50:00,
2013-10-04 04:51:00,72.2,67.4,29.52,SSE,156,0.0,18.0,85,0.00,,SKC,0.00,0.00,VWS V14.01,2013-10-04 09:51:00,
2013-10-04 04:56:00,72.2,67.4,29.52,South,169,4.0,10.0,85,0.00,,SKC,0.00,0.00,VWS V14.01,2013-10-04 09:56:00,
2013-10-04 05:00:00,72.2,67.4,29.52,SSE,167,0.0,10.0,85,0.00,,SKC,0.00,0.00,VWS V14.01,2013-10-04 10:00:00,
2013-10-04 05:01:00,72.2,67.4,29.52,SSE,167,2.0,10.0,85,0.00,,SKC,0.00,0.00,VWS V14.01,2013-10-04 10:01:00,
2013-10-04 05:06:00,72.3,67.5,29.53,WSW,237,8.0,8.0,85,0.00,,SKC,0.00,0.00,VWS V14.01,2013-10-04 10:06:00,
2013-10-04 05:10:00,72.4,67.6,29.53,South,169,5.0,12.0,85,0.00,,SKC,0.00,0.00,VWS V14.01,2013-10-04 10:10:00,
2013-10-04 05:11:00,72.4,67.6,29.53,South,169,2.0,12.0,85,0.00,,SKC,0.00,0.00,VWS V14.01,2013-10-04 10:11:00,
2013-10-04 05:16:00,72.5,67.7,29.53,SSE,156,0.0,12.0,85,0.00,,SKC,0.00,0.00,VWS V14.01,2013-10-04 10:16:00,
2013-10-04 05:20:00,72.6,67.8,29.53,ESE,120,2.0,12.0,85,0.00,,SKC,0.00,0.00,VWS V14.01,2013-10-04 10:20:00,
2013-10-04 05:21:00,72.5,67.7,29.53,ESE,118,6.0,12.0,85,0.00,,SKC,0.00,0.00,VWS V14.01,2013-10-04 10:21:00,
2013-10-04 05:26:00,72.6,67.8,29.54,SSE,165,4.0,8.0,85,0.00,,SKC,0.00,0.00,VWS V14.01,2013-10-04 10:26:00,
2013-10-04 05:31:00,72.7,67.9,29.54,SSE,165,0.0,8.0,85,0.00,,SKC,0.00,0.00,VWS V14.01,2013-10-04 10:31:00,
2013-10-04 05:36:00,72.7,67.9,29.54,West,265,3.0,7.0,85,0.00,,SKC,0.00,0.00,VWS V14.01,2013-10-04 10:36:00,
2013-10-04 05:40:00,72.8,68.0,29.54,West,263,0.0,7.0,85,0.00,,SKC,0.00,0.00,VWS V14.01,2013-10-04 10:40:00,
2013-10-04 05:41:00,72.8,68.0,29.54,West,263,0.0,7.0,85,0.00,,SKC,0.00,0.00,VWS V14.01,2013-10-04 10:41:00,
2013-10-04 05:46:00,72.8,67.7,29.54,SSE,152,0.0,6.0,84,0.00,,SKC,0.00,0.00,VWS V14.01,2013-10-04 10:46:00,
2013-10-04 05:50:00,72.8,67.7,29.54,SE,126,0.0,13.0,84,0.00,,SKC,0.00,0.00,VWS V14.01,2013-10-04 10:50:00,
2013-10-04 05:51:00,72.8,67.7,29.54,SE,126,0.0,13.0,84,0.00,,SKC,0.00,0.00,VWS V14.01,2013-10-04 10:51:00,
2013-10-04 05:56:00,72.8,67.7,29.54,SE,126,0.0,6.0,84,0.00,,SKC,0.00,0.00,VWS V14.01,2013-10-04 10:56:00,
2013-10-04 06:00:00,72.7,67.9,29.54,SE,127,4.0,7.0,85,0.00,,SKC,0.00,0.00,VWS V14.01,2013-10-04 11:00:00,
2013-10-04 06:01:00,72.7,67.9,29.54,SE,126,4.0,7.0,85,0.00,,SKC,0.00,0.00,VWS V14.01,2013-10-04 11:01:00,
2013-10-04 06:06:00,72.7,67.6,29.54,South,180,3.0,8.0,84,0.00,,SKC,0.00,0.00,VWS V14.01,2013-10-04 11:06:00,
2013-10-04 06:10:00,72.8,67.7,29.55,SSE,161,1.0,12.0,84,0.00,,SKC,0.00,0.00,VWS V14.01,2013-10-04 11:10:00,
2013-10-04 06:11:00,72.8,67.7,29.55,SSE,161,6.0,12.0,84,0.00,,SKC,0.00,0.00,VWS V14.01,2013-10-04 11:11:00,
2013-10-04 06:16:00,72.8,67.7,29.54,South,169,8.0,10.0,84,0.00,,SKC,0.00,0.00,VWS V14.01,2013-10-04 11:16:00,
2013-10-04 06:20:00,72.8,67.7,29.54,SSW,212,0.0,10.0,84,0.00,,SKC,0.00,0.00,VWS V14.01,2013-10-04 11:20:00,
2013-10-04 06:21:00,72.9,67.8,29.54,SSW,213,1.0,10.0,84,0.00,,SKC,0.00,0.00,VWS V14.01,2013-10-04 11:21:00,
2013-10-04 06:26:00,72.9,67.8,29.54,SE,137,5.0,8.0,84,0.00,,SKC,0.00,0.00,VWS V14.01,2013-10-04 11:26:00,
2013-10-04 06:30:00,73.0,67.9,29.55,SSE,150,2.0,12.0,84,0.00,,SKC,0.00,0.00,VWS V14.01,2013-10-04 11:30:00,
2013-10-04 06:31:00,72.9,67.8,29.55,SSE,150,2.0,12.0,84,0.00,,SKC,0.00,0.00,VWS V14.01,2013-10-04 11:31:00,
2013-10-04 06:36:00,73.0,67.9,29.55,SE,144,8.0,10.0,84,0.00,,SKC,0.00,0.00,VWS V14.01,2013-10-04 11:36:00,
2013-10-04 06:40:00,73.0,67.9,29.55,ESE,115,0.0,11.0,84,0.00,,SKC,0.00,0.00,VWS V14.01,2013-10-04 11:40:00,
2013-10-04 06:41:00,72.9,67.8,29.55,ESE,115,0.0,11.0,84,0.00,,SKC,0.00,0.00,VWS V14.01,2013-10-04 11:41:00,
2013-10-04 06:46:00,72.9,67.8,29.55,SSE,150,7.0,9.0,84,0.00,,SKC,0.00,0.00,VWS V14.01,2013-10-04 11:46:00,
2013-10-04 06:50:00,72.8,67.7,29.55,SE,127,8.0,9.0,84,0.00,,SKC,0.00,0.00,VWS V14.01,2013-10-04 11:50:00,
2013-10-04 06:51:00,72.8,67.7,29.55,South,175,6.0,9.0,84,0.00,,SKC,0.00,0.00,VWS V14.01,2013-10-04 11:51:00,
2013-10-04 06:56:00,72.8,67.7,29.55,SSE,147,7.0,10.0,84,0.00,,SKC,0.00,0.00,VWS V14.01,2013-10-04 11:56:00,
2013-10-04 07:00:00,72.8,68.0,29.55,SSE,150,8.0,12.0,85,0.00,,SKC,0.00,0.00,VWS V14.01,2013-10-04 12:00:00,
2013-10-04 07:01:00,72.8,68.0,29.55,SSE,150,4.0,12.0,85,0.00,,SKC,0.00,0.00,VWS V14.01,2013-10-04 12:01:00,
2013-10-04 07:06:00,72.7,67.9,29.55,SSE,154,5.0,13.0,85,0.00,,SKC,0.00,0.00,VWS V14.01,2013-10-04 12:06:00,
2013-10-04 07:10:00,72.7,67.9,29.55,SSE,150,2.0,13.0,85,0.00,,SKC,0.00,0.00,VWS V14.01,2013-10-04 12:10:00,
2013-10-04 07:11:00,72.7,67.9,29.55,SSE,150,5.0,13.0,85,0.00,,SKC,0.00,0.00,VWS V14.01,2013-10-04 12:11:00,
2013-10-04 07:16:00,72.7,67.9,29.55,SSE,150,0.0,9.0,85,0.00,,SKC,0.00,0.00,VWS V14.01,2013-10-04 12:16:00,
2013-10-04 07:21:00,72.7,67.9,29.55,SSE,150,10.0,14.0,85,0.00,,SKC,0.00,0.00,VWS V14.01,2013-10-04 12:21:00,
2013-10-04 07:26:00,72.7,67.9,29.55,SSW,194,5.0,13.0,85,0.00,,SKC,0.00,0.00,VWS V14.01,2013-10-04 12:26:00,
2013-10-04 07:30:00,72.7,67.9,29.55,South,170,6.0,13.0,85,0.00,,SKC,0.00,0.00,VWS V14.01,2013-10-04 12:30:00,
2013-10-04 07:31:00,72.7,67.9,29.55,South,170,2.0,13.0,85,0.00,,SKC,0.00,0.00,VWS V14.01,2013-10-04 12:31:00,
2013-10-04 07:36:00,72.7,67.9,29.55,SE,131,7.0,14.0,85,0.00,,SKC,0.00,0.00,VWS V14.01,2013-10-04 12:36:00,
2013-10-04 07:40:00,72.7,67.9,29.55,SSE,159,9.0,14.0,85,0.00,,SKC,0.00,5.00,VWS V14.01,2013-10-04 12:40:00,
2013-10-04 07:41:00,72.7,67.9,29.55,SSE,161,6.0,14.0,85,0.00,,SKC,0.00,5.00,VWS V14.01,2013-10-04 12:41:00,
2013-10-04 07:46:00,72.7,67.9,29.56,SSE,156,6.0,9.0,85,0.00,,SKC,0.00,9.00,VWS V14.01,2013-10-04 12:46:00,
2013-10-04 07:50:00,72.7,67.9,29.56,SSE,157,5.0,10.0,85,0.00,,SKC,0.00,11.00,VWS V14.01,2013-10-04 12:50:00,
2013-10-04 07:51:00,72.7,67.9,29.56,SSE,157,2.0,10.0,85,0.00,,SKC,0.00,11.00,VWS V14.01,2013-10-04 12:51:00,
2013-10-04 07:56:00,72.7,68.3,29.56,SSE,157,5.0,10.0,86,0.00,,SKC,0.00,12.00,VWS V14.01,2013-10-04 12:56:00,
2013-10-04 08:00:00,72.7,67.9,29.56,SSE,154,6.0,10.0,85,0.00,,SKC,0.00,16.00,VWS V14.01,2013-10-04 13:00:00,
2013-10-04 08:01:00,72.7,67.9,29.56,SSE,154,1.0,10.0,85,0.00,,SKC,0.00,16.00,VWS V14.01,2013-10-04 13:01:00,
2013-10-04 08:06:00,72.7,67.9,29.56,SSE,159,6.0,10.0,85,0.00,,SKC,0.00,19.00,VWS V14.01,2013-10-04 13:06:00,
2013-10-04 08:10:00,72.8,68.0,29.56,SSE,160,0.0,11.0,85,0.00,,SKC,0.00,18.00,VWS V14.01,2013-10-04 13:10:00,
2013-10-04 08:11:00,72.8,68.0,29.56,SSE,160,5.0,11.0,85,0.00,,SKC,0.00,18.00,VWS V14.01,2013-10-04 13:11:00,
2013-10-04 08:16:00,72.8,68.0,29.56,SE,134,5.0,13.0,85,0.00,,SKC,0.00,26.00,VWS V14.01,2013-10-04 13:16:00,
2013-10-04 08:20:00,72.8,68.0,29.56,SSE,160,4.0,13.0,85,0.00,,SKC,0.00,26.00,VWS V14.01,2013-10-04 13:20:00,
2013-10-04 08:21:00,72.8,68.0,29.56,SSE,160,4.0,13.0,85,0.00,,SKC,0.00,26.00,VWS V14.01,2013-10-04 13:21:00,
2013-10-04 08:26:00,72.8,68.0,29.56,SSE,160,7.0,7.0,85,0.00,,SKC,0.00,39.00,VWS V14.01,2013-10-04 13:26:00,
2013-10-04 08:30:00,72.9,68.1,29.56,SSE,156,0.0,10.0,85,0.00,,SKC,0.00,37.00,VWS V14.01,2013-10-04 13:30:00,
2013-10-04 08:31:00,72.8,68.0,29.56,SSE,156,4.0,10.0,85,0.00,,SKC,0.00,37.00,VWS V14.01,2013-10-04 13:31:00,
2013-10-04 08:36:00,72.9,68.1,29.57,SSE,165,2.0,14.0,85,0.00,,SKC,0.00,42.00,VWS V14.01,2013-10-04 13:36:00,
2013-10-04 08:40:00,72.8,67.7,29.57,SSW,192,3.0,14.0,84,0.00,,SKC,0.00,44.00,VWS V14.01,2013-10-04 13:40:00,
2013-10-04 08:41:00,72.8,67.7,29.57,SSW,194,3.0,14.0,84,0.00,,SKC,0.00,44.00,VWS V14.01,2013-10-04 13:41:00,
2013-10-04 08:46:00,72.8,67.7,29.56,SSE,157,5.0,10.0,84,0.00,,SKC,0.00,51.00,VWS V14.01,2013-10-04 13:46:00,
2013-10-04 08:50:00,72.8,68.0,29.56,SSE,159,0.0,10.0,85,0.00,,SKC,0.00,67.00,VWS V14.01,2013-10-04 13:50:00,
2013-10-04 08:51:00,72.8,68.0,29.56,SSE,159,4.0,10.0,85,0.00,,SKC,0.00,65.00,VWS V14.01,2013-10-04 13:51:00,
2013-10-04 08:56:00,73.0,68.2,29.56,SSE,157,4.0,6.0,85,0.00,,SKC,0.00,65.00,VWS V14.01,2013-10-04 13:56:00,
2013-10-04 09:01:00,73.0,67.9,29.57,SSE,159,8.0,11.0,84,0.00,,SKC,0.00,63.00,VWS V14.01,2013-10-04 14:01:00,
2013-10-04 09:06:00,73.0,67.9,29.57,WSW,252,6.0,10.0,84,0.00,,SKC,0.00,63.00,VWS V14.01,2013-10-04 14:06:00,
2013-10-04 09:10:00,72.9,67.8,29.57,South,184,6.0,12.0,84,0.00,,SKC,0.00,63.00,VWS V14.01,2013-10-04 14:10:00,
2013-10-04 09:11:00,72.9,67.8,29.57,SSE,150,4.0,12.0,84,0.00,,SKC,0.00,69.00,VWS V14.01,2013-10-04 14:11:00,
2013-10-04 09:16:00,72.8,67.7,29.57,SW,223,8.0,12.0,84,0.00,,SKC,0.00,63.00,VWS V14.01,2013-10-04 14:16:00,
2013-10-04 09:20:00,72.8,67.7,29.57,SSE,155,7.0,12.0,84,0.00,,SKC,0.00,88.00,VWS V14.01,2013-10-04 14:20:00,
2013-10-04 09:21:00,72.8,67.7,29.57,SSE,158,4.0,12.0,84,0.00,,SKC,0.00,79.00,VWS V14.01,2013-10-04 14:21:00,
2013-10-04 09:26:00,72.8,67.7,29.58,SSW,203,4.0,11.0,84,0.00,,SKC,0.00,91.00,VWS V14.01,2013-10-04 14:26:00,
2013-10-04 09:30:00,72.9,67.8,29.58,SW,226,8.0,12.0,84,0.00,,SKC,0.00,84.00,VWS V14.01,2013-10-04 14:30:00,
2013-10-04 09:31:00,72.8,67.7,29.58,SW,224,8.0,12.0,84,0.00,,SKC,0.00,84.00,VWS V14.01,2013-10-04 14:31:00,
2013-10-04 09:36:00,72.9,67.8,29.58,SW,214,6.0,16.0,84,0.00,,SKC,0.00,84.00,VWS V14.01,2013-10-04 14:36:00,
2013-10-04 09:40:00,72.9,67.8,29.58,SSE,159,9.0,16.0,84,0.00,,SKC,0.00,113.00,VWS V14.01,2013-10-04 14:40:00,
2013-10-04 09:41:00,73.0,67.9,29.58,SSW,209,0.0,16.0,84,0.00,,SKC,0.00,113.00,VWS V14.01,2013-10-04 14:41:00,
2013-10-04 09:46:00,73.1,68.0,29.58,SSE,165,4.0,9.0,84,0.00,,SKC,0.00,121.00,VWS V14.01,2013-10-04 14:46:00,
2013-10-04 09:50:00,73.3,67.8,29.58,SSE,167,5.0,10.0,83,0.00,,SKC,0.00,158.00,VWS V14.01,2013-10-04 14:50:00,
2013-10-04 09:51:00,73.2,67.7,29.58,SSE,167,5.0,10.0,83,0.00,,SKC,0.00,116.00,VWS V14.01,2013-10-04 14:51:00,
2013-10-04 09:56:00,73.4,67.9,29.58,SSE,157,9.0,14.0,83,0.00,,SKC,0.00,183.00,VWS V14.01,2013-10-04 14:56:00,
2013-10-04 10:00:00,73.6,67.8,29.58,SSE,155,4.0,15.0,82,0.00,,SKC,0.00,202.00,VWS V14.01,2013-10-04 15:00:00,
2013-10-04 10:01:00,73.6,67.8,29.58,SSE,155,5.0,15.0,82,0.00,,SKC,0.00,216.00,VWS V14.01,2013-10-04 15:01:00,
2013-10-04 10:06:00,73.9,68.1,29.58,SE,144,7.0,10.0,82,0.00,,SKC,0.00,243.00,VWS V14.01,2013-10-04 15:06:00,
2013-10-04 10:10:00,74.3,68.1,29.58,SE,134,6.0,16.0,81,0.00,,SKC,0.00,285.00,VWS V14.01,2013-10-04 15:10:00,
2013-10-04 10:11:00,74.3,68.1,29.58,SE,144,13.0,16.0,81,0.00,,SKC,0.00,251.00,VWS V14.01,2013-10-04 15:11:00,
2013-10-04 10:16:00,75.0,68.1,29.58,SE,145,15.0,15.0,79,0.00,,SKC,0.00,308.00,VWS V14.01,2013-10-04 15:16:00,
2013-10-04 10:18:00,75.1,68.2,29.59,SE,137,6.0,15.0,79,0.00,,SKC,0.00,279.00,VWS V14.01,2013-10-04 15:18:00,
2013-10-04 10:20:00,75.6,68.3,29.58,SE,142,5.0,15.0,78,0.00,,SKC,0.00,708.00,VWS V14.01,2013-10-04 15:20:00,
2013-10-04 10:23:00,75.7,68.4,29.58,SE,142,5.0,6.0,78,0.00,,SKC,0.00,311.00,VWS V14.01,2013-10-04 15:23:00,
2013-10-04 10:28:00,76.2,68.1,29.58,ESE,119,7.0,15.0,76,0.00,,SKC,0.00,343.00,VWS V14.01,2013-10-04 15:28:00,
2013-10-04 10:30:00,75.9,67.8,29.58,SSE,161,4.0,15.0,76,0.00,,SKC,0.00,466.00,VWS V14.01,2013-10-04 15:30:00,
2013-10-04 10:33:00,76.0,67.9,29.58,SSE,159,9.0,10.0,76,0.00,,SKC,0.00,466.00,VWS V14.01,2013-10-04 15:33:00,
2013-10-04 10:38:00,76.3,67.4,29.58,South,170,8.0,14.0,74,0.00,,SKC,0.00,185.00,VWS V14.01,2013-10-04 15:38:00,
2013-10-04 10:40:00,76.3,67.4,29.58,South,176,9.0,14.0,74,0.00,,SKC,0.00,204.00,VWS V14.01,2013-10-04 15:40:00,
2013-10-04 10:42:00,76.3,67.4,29.58,South,174,4.0,11.0,74,0.00,,SKC,0.00,204.00,VWS V14.01,2013-10-04 15:42:00,
2013-10-04 10:47:00,77.0,67.7,29.59,South,175,5.0,11.0,73,0.00,,SKC,0.00,701.00,VWS V14.01,2013-10-04 15:47:00,
2013-10-04 10:50:00,78.0,67.8,29.58,SSW,208,4.0,11.0,71,0.00,,SKC,0.00,749.00,VWS V14.01,2013-10-04 15:50:00,
2013-10-04 10:52:00,78.0,67.8,29.58,SSW,200,4.0,8.0,71,0.00,,SKC,0.00,749.00,VWS V14.01,2013-10-04 15:52:00,
2013-10-04 10:57:00,78.2,68.0,29.59,SSE,161,12.0,12.0,71,0.00,,SKC,0.00,636.00,VWS V14.01,2013-10-04 15:57:00,
2013-10-04 11:00:00,78.0,67.4,29.59,South,175,2.0,12.0,70,0.00,,SKC,0.00,650.00,VWS V14.01,2013-10-04 16:00:00,
2013-10-04 11:02:00,78.3,68.1,29.59,South,173,7.0,7.0,71,0.00,,SKC,0.00,650.00,VWS V14.01,2013-10-04 16:02:00,
2013-10-04 11:07:00,78.6,68.0,29.58,SSE,166,2.0,11.0,70,0.00,,SKC,0.00,693.00,VWS V14.01,2013-10-04 16:07:00,
2013-10-04 11:12:00,79.1,68.5,29.58,SW,227,6.0,11.0,70,0.00,,SKC,0.00,675.00,VWS V14.01,2013-10-04 16:12:00,
2013-10-04 11:17:00,79.2,68.2,29.58,South,188,8.0,11.0,69,0.00,,SKC,0.00,671.00,VWS V14.01,2013-10-04 16:17:00,
2013-10-04 11:20:00,79.1,68.1,29.58,SSW,192,4.0,12.0,69,0.00,,SKC,0.00,689.00,VWS V14.01,2013-10-04 16:20:00,
2013-10-04 11:22:00,79.3,68.3,29.58,South,175,8.0,8.0,69,0.00,,SKC,0.00,694.00,VWS V14.01,2013-10-04 16:22:00,
2013-10-04 11:27:00,79.6,67.7,29.58,WSW,243,14.0,14.0,67,0.00,,SKC,0.00,675.00,VWS V14.01,2013-10-04 16:27:00,
2013-10-04 11:30:00,80.1,67.3,29.58,SSE,167,8.0,14.0,65,0.00,,SKC,0.00,682.00,VWS V14.01,2013-10-04 16:30:00,
2013-10-04 11:32:00,80.0,67.2,29.58,South,174,6.0,13.0,65,0.00,,SKC,0.00,686.00,VWS V14.01,2013-10-04 16:32:00,
2013-10-04 11:37:00,80.0,66.7,29.58,SW,234,8.0,14.0,64,0.00,,SKC,0.00,693.00,VWS V14.01,2013-10-04 16:37:00,
2013-10-04 11:40:00,80.3,67.0,29.57,SE,143,12.0,14.0,64,0.00,,SKC,0.00,703.00,VWS V14.01,2013-10-04 16:40:00,
2013-10-04 11:42:00,80.4,66.7,29.58,South,170,9.0,16.0,63,0.00,,SKC,0.00,703.00,VWS V14.01,2013-10-04 16:42:00,
2013-10-04 11:47:00,80.7,66.5,29.57,SE,144,14.0,18.0,62,0.00,,SKC,0.00,710.00,VWS V14.01,2013-10-04 16:47:00,
2013-10-04 11:50:00,81.3,67.1,29.57,SSE,148,6.0,18.0,62,0.00,,SKC,0.00,721.00,VWS V14.01,2013-10-04 16:50:00,
2013-10-04 11:52:00,81.4,66.7,29.57,SSE,165,4.0,10.0,61,0.00,,SKC,0.00,722.00,VWS V14.01,2013-10-04 16:52:00,
2013-10-04 11:57:00,81.6,66.4,29.57,SE,136,10.0,11.0,60,0.00,,SKC,0.00,729.00,VWS V14.01,2013-10-04 16:57:00,
2013-10-04 12:00:00,81.8,66.6,29.57,SE,130,6.0,19.0,60,0.00,,SKC,0.00,735.00,VWS V14.01,2013-10-04 17:00:00,
2013-10-04 12:02:00,81.8,67.1,29.57,SSE,166,5.0,11.0,61,0.00,,SKC,0.00,740.00,VWS V14.01,2013-10-04 17:02:00,
2013-10-04 12:07:00,81.8,66.1,29.57,SSW,195,1.0,16.0,59,0.00,,SKC,0.00,745.00,VWS V14.01,2013-10-04 17:07:00,
2013-10-04 12:10:00,82.3,66.6,29.57,SSE,150,7.0,17.0,59,0.00,,SKC,0.00,752.00,VWS V14.01,2013-10-04 17:10:00,
2013-10-04 12:12:00,82.4,66.7,29.57,SE,144,8.0,11.0,59,0.00,,SKC,0.00,752.00,VWS V14.01,2013-10-04 17:12:00,
2013-10-04 12:17:00,82.3,66.6,29.57,SE,143,6.0,14.0,59,0.00,,SKC,0.00,756.00,VWS V14.01,2013-10-04 17:17:00,
2013-10-04 12:20:00,82.5,66.7,29.57,SE,140,4.0,15.0,59,0.00,,SKC,0.00,761.00,VWS V14.01,2013-10-04 17:20:00,
2013-10-04 12:22:00,82.5,66.7,29.57,SSE,156,15.0,15.0,59,0.00,,SKC,0.00,763.00,VWS V14.01,2013-10-04 17:22:00,
2013-10-04 12:27:00,82.3,67.0,29.57,South,175,5.0,15.0,60,0.00,,SKC,0.00,768.00,VWS V14.01,2013-10-04 17:27:00,
2013-10-04 12:30:00,82.6,67.3,29.57,SSE,157,6.0,15.0,60,0.00,,SKC,0.00,773.00,VWS V14.01,2013-10-04 17:30:00,
2013-10-04 12:32:00,82.9,67.6,29.57,SSE,159,5.0,6.0,60,0.00,,SKC,0.00,775.00,VWS V14.01,2013-10-04 17:32:00,
2013-10-04 12:40:00,83.2,66.9,29.57,SW,217,8.0,12.0,58,0.00,,SKC,0.00,784.00,VWS V14.01,2013-10-04 17:40:00,
2013-10-04 12:50:00,84.0,67.1,29.57,SSE,168,4.0,14.0,57,0.00,,SKC,0.00,793.00,VWS V14.01,2013-10-04 17:50:00,
2013-10-04 13:00:00,84.3,67.4,29.56,SSE,161,7.0,12.0,57,0.00,,SKC,0.00,800.00,VWS V14.01,2013-10-04 18:00:00,
2013-10-04 13:02:00,84.5,67.1,29.56,SE,128,7.0,13.0,56,0.00,,SKC,0.00,800.00,VWS V14.01,2013-10-04 18:02:00,
2013-10-04 13:07:00,84.4,66.5,29.56,SSE,147,8.0,15.0,55,0.00,,SKC,0.00,803.00,VWS V14.01,2013-10-04 18:07:00,
2013-10-04 13:10:00,84.1,66.2,29.55,SE,138,5.0,15.0,55,0.00,,SKC,0.00,803.00,VWS V14.01,2013-10-04 18:10:00,
2013-10-04 13:12:00,84.1,66.7,29.56,SE,128,9.0,9.0,56,0.00,,SKC,0.00,802.00,VWS V14.01,2013-10-04 18:12:00,
2013-10-04 13:17:00,85.2,67.2,29.55,SE,143,9.0,13.0,55,0.00,,SKC,0.00,805.00,VWS V14.01,2013-10-04 18:17:00,
2013-10-04 13:20:00,85.0,67.0,29.55,SSE,152,4.0,13.0,55,0.00,,SKC,0.00,803.00,VWS V14.01,2013-10-04 18:20:00,
2013-10-04 13:22:00,85.0,67.6,29.55,SE,137,9.0,14.0,56,0.00,,SKC,0.00,805.00,VWS V14.01,2013-10-04 18:22:00,
2013-10-04 13:27:00,85.2,67.2,29.55,SSE,162,11.0,16.0,55,0.00,,SKC,0.00,805.00,VWS V14.01,2013-10-04 18:27:00,
2013-10-04 13:30:00,85.2,67.2,29.55,SSE,161,6.0,16.0,55,0.00,,SKC,0.00,805.00,VWS V14.01,2013-10-04 18:30:00,
2013-10-04 13:32:00,85.2,67.2,29.55,SSE,157,7.0,10.0,55,0.00,,SKC,0.00,805.00,VWS V14.01,2013-10-04 18:32:00,
2013-10-04 13:37:00,85.2,67.2,29.54,South,187,2.0,12.0,55,0.00,,SKC,0.00,807.00,VWS V14.01,2013-10-04 18:37:00,
2013-10-04 13:40:00,85.3,67.8,29.54,South,184,5.0,12.0,56,0.00,,SKC,0.00,807.00,VWS V14.01,2013-10-04 18:40:00,
2013-10-04 13:42:00,85.4,67.9,29.54,SW,228,10.0,11.0,56,0.00,,SKC,0.00,807.00,VWS V14.01,2013-10-04 18:42:00,
2013-10-04 13:47:00,85.3,66.2,29.54,SSW,206,4.0,11.0,53,0.00,,SKC,0.00,800.00,VWS V14.01,2013-10-04 18:47:00,
2013-10-04 13:50:00,86.1,67.0,29.53,South,190,5.0,13.0,53,0.00,,SKC,0.00,800.00,VWS V14.01,2013-10-04 18:50:00,
2013-10-04 13:52:00,86.3,67.2,29.53,SSW,192,4.0,6.0,53,0.00,,SKC,0.00,802.00,VWS V14.01,2013-10-04 18:52:00,
2013-10-04 13:57:00,86.4,66.7,29.54,SSE,163,11.0,15.0,52,0.00,,SKC,0.00,800.00,VWS V14.01,2013-10-04 18:57:00,
2013-10-04 14:00:00,86.1,67.0,29.54,SSE,155,8.0,15.0,53,0.00,,SKC,0.00,798.00,VWS V14.01,2013-10-04 19:00:00,
2013-10-04 14:02:00,86.1,66.4,29.54,SSE,159,4.0,10.0,52,0.00,,SKC,0.00,798.00,VWS V14.01,2013-10-04 19:02:00,
2013-10-04 14:07:00,85.9,66.8,29.53,WSW,244,8.0,13.0,53,0.00,,SKC,0.00,793.00,VWS V14.01,2013-10-04 19:07:00,
2013-10-04 14:10:00,86.0,66.3,29.53,SSE,150,11.0,15.0,52,0.00,,SKC,0.00,791.00,VWS V14.01,2013-10-04 19:10:00,
2013-10-04 14:12:00,86.0,66.9,29.53,SW,216,7.0,11.0,53,0.00,,SKC,0.00,791.00,VWS V14.01,2013-10-04 19:12:00,
2013-10-04 14:17:00,86.2,66.5,29.53,South,188,6.0,13.0,52,0.00,,SKC,0.00,784.00,VWS V14.01,2013-10-04 19:17:00,
2013-10-04 14:20:00,86.3,66.1,29.52,SE,144,8.0,15.0,51,0.00,,SKC,0.00,784.00,VWS V14.01,2013-10-04 19:20:00,
2013-10-04 14:22:00,86.3,66.6,29.52,SE,144,8.0,11.0,52,0.00,,SKC,0.00,780.00,VWS V14.01,2013-10-04 19:22:00,
2013-10-04 14:27:00,86.3,66.6,29.51,WSW,238,4.0,13.0,52,0.00,,SKC,0.00,773.00,VWS V14.01,2013-10-04 19:27:00,
2013-10-04 14:30:00,86.6,66.9,29.52,SE,140,10.0,13.0,52,0.00,,SKC,0.00,772.00,VWS V14.01,2013-10-04 19:30:00,
2013-10-04 14:32:00,86.7,67.0,29.52,SE,140,5.0,10.0,52,0.00,,SKC,0.00,772.00,VWS V14.01,2013-10-04 19:32:00,
2013-10-04 14:37:00,86.7,67.5,29.51,SW,222,5.0,12.0,53,0.00,,SKC,0.00,765.00,VWS V14.01,2013-10-04 19:37:00,
2013-10-04 14:40:00,87.2,67.4,29.51,SSW,198,3.0,12.0,52,0.00,,SKC,0.00,761.00,VWS V14.01,2013-10-04 19:40:00,
2013-10-04 14:42:00,87.0,67.3,29.52,SSW,202,5.0,7.0,52,0.00,,SKC,0.00,759.00,VWS V14.01,2013-10-04 19:42:00,
2013-10-04 14:47:00,86.9,67.7,29.51,SSE,153,11.0,11.0,53,0.00,,SKC,0.00,754.00,VWS V14.01,2013-10-04 19:47:00,
2013-10-04 14:50:00,87.2,68.0,29.50,South,180,3.0,11.0,53,0.00,,SKC,0.00,745.00,VWS V14.01,2013-10-04 19:50:00,
2013-10-04 14:52:00,87.2,68.5,29.50,South,175,8.0,8.0,54,0.00,,SKC,0.00,740.00,VWS V14.01,2013-10-04 19:52:00,
2013-10-04 14:57:00,87.9,68.7,29.51,SSW,194,4.0,13.0,53,0.00,,SKC,0.00,737.00,VWS V14.01,2013-10-04 19:57:00,
2013-10-04 15:00:00,87.8,68.6,29.51,SSW,213,0.0,13.0,53,0.00,,SKC,0.00,728.00,VWS V14.01,2013-10-04 20:00:00,
2013-10-04 15:02:00,87.8,68.6,29.51,SSW,213,0.0,2.0,53,0.00,,SKC,0.00,729.00,VWS V14.01,2013-10-04 20:02:00,
2013-10-04 15:07:00,88.3,68.5,29.51,SSE,155,0.0,14.0,52,0.00,,SKC,0.00,715.00,VWS V14.01,2013-10-04 20:07:00,
2013-10-04 15:10:00,88.3,68.5,29.51,SSE,167,0.0,14.0,52,0.00,,SKC,0.00,715.00,VWS V14.01,2013-10-04 20:10:00,
2013-10-04 15:12:00,88.4,68.0,29.51,SSE,163,7.0,13.0,51,0.00,,SKC,0.00,715.00,VWS V14.01,2013-10-04 20:12:00,
2013-10-04 15:17:00,88.1,68.3,29.51,SW,236,12.0,13.0,52,0.00,,SKC,0.00,715.00,VWS V14.01,2013-10-04 20:17:00,
2013-10-04 15:20:00,87.9,68.1,29.50,SSE,150,10.0,13.0,52,0.00,,SKC,0.00,707.00,VWS V14.01,2013-10-04 20:20:00,
2013-10-04 15:22:00,87.8,68.0,29.51,SSE,150,4.0,10.0,52,0.00,,SKC,0.00,705.00,VWS V14.01,2013-10-04 20:22:00,
2013-10-04 15:27:00,88.2,68.4,29.50,SSE,156,2.0,12.0,52,0.00,,SKC,0.00,700.00,VWS V14.01,2013-10-04 20:27:00,
2013-10-04 15:30:00,88.1,68.3,29.50,SSE,150,7.0,12.0,52,0.00,,SKC,0.00,700.00,VWS V14.01,2013-10-04 20:30:00,
2013-10-04 15:32:00,88.0,68.2,29.50,SSE,151,5.0,7.0,52,0.00,,SKC,0.00,696.00,VWS V14.01,2013-10-04 20:32:00,
2013-10-04 15:37:00,88.3,68.5,29.50,SE,143,7.0,12.0,52,0.00,,SKC,0.00,721.00,VWS V14.01,2013-10-04 20:37:00,
2013-10-04 15:40:00,87.9,68.7,29.50,SSE,150,4.0,12.0,53,0.00,,SKC,0.00,689.00,VWS V14.01,2013-10-04 20:40:00,
2013-10-04 15:42:00,87.9,68.7,29.50,SSE,147,5.0,7.0,53,0.00,,SKC,0.00,689.00,VWS V14.01,2013-10-04 20:42:00,
2013-10-04 15:47:00,88.6,69.8,29.50,SSW,194,8.0,11.0,54,0.00,,SKC,0.00,650.00,VWS V14.01,2013-10-04 20:47:00,
2013-10-04 15:50:00,88.3,68.5,29.50,SSE,159,1.0,11.0,52,0.00,,SKC,0.00,664.00,VWS V14.01,2013-10-04 20:50:00,
2013-10-04 15:52:00,88.4,68.6,29.50,SSE,159,5.0,5.0,52,0.00,,SKC,0.00,659.00,VWS V14.01,2013-10-04 20:52:00,
2013-10-04 15:57:00,88.8,68.9,29.50,SE,135,4.0,12.0,52,0.00,,SKC,0.00,617.00,VWS V14.01,2013-10-04 20:57:00,
2013-10-04 16:00:00,88.8,69.5,29.50,SE,143,6.0,12.0,53,0.00,,SKC,0.00,606.00,VWS V14.01,2013-10-04 21:00:00,
2013-10-04 16:02:00,88.9,68.4,29.50,SSE,151,4.0,6.0,51,0.00,,SKC,0.00,596.00,VWS V14.01,2013-10-04 21:02:00,
2013-10-04 16:07:00,88.3,67.9,29.49,SSE,153,4.0,9.0,51,0.00,,SKC,0.00,594.00,VWS V14.01,2013-10-04 21:07:00,
2013-10-04 16:10:00,88.3,69.0,29.49,SSE,150,2.0,12.0,53,0.00,,SKC,0.00,596.00,VWS V14.01,2013-10-04 21:10:00,
2013-10-04 16:12:00,88.4,68.6,29.49,SSE,150,7.0,10.0,52,0.00,,SKC,0.00,596.00,VWS V14.01,2013-10-04 21:12:00,
2013-10-04 16:17:00,88.2,67.8,29.50,SSW,202,9.0,13.0,51,0.00,,SKC,0.00,578.00,VWS V14.01,2013-10-04 21:17:00,
2013-10-04 16:20:00,88.0,67.6,29.50,SSE,155,8.0,13.0,51,0.00,,SKC,0.00,570.00,VWS V14.01,2013-10-04 21:20:00,
2013-10-04 16:22:00,88.0,67.6,29.50,SSE,164,7.0,10.0,51,0.00,,SKC,0.00,570.00,VWS V14.01,2013-10-04 21:22:00,
2013-10-04 16:27:00,87.9,67.5,29.50,SSE,155,0.0,14.0,51,0.00,,SKC,0.00,615.00,VWS V14.01,2013-10-04 21:27:00,
2013-10-04 16:30:00,87.5,67.7,29.50,SE,138,10.0,15.0,52,0.00,,SKC,0.00,563.00,VWS V14.01,2013-10-04 21:30:00,
2013-10-04 16:32:00,87.6,67.8,29.49,SE,140,10.0,12.0,52,0.00,,SKC,0.00,563.00,VWS V14.01,2013-10-04 21:32:00,
2013-10-04 16:37:00,87.7,67.3,29.50,SSE,153,4.0,12.0,51,0.00,,SKC,0.00,160.00,VWS V14.01,2013-10-04 21:37:00,
2013-10-04 16:40:00,87.8,67.4,29.50,SSE,158,7.0,17.0,51,0.00,,SKC,0.00,471.00,VWS V14.01,2013-10-04 21:40:00,
2013-10-04 16:42:00,87.8,67.4,29.49,SSE,147,11.0,11.0,51,0.00,,SKC,0.00,471.00,VWS V14.01,2013-10-04 21:42:00,
2013-10-04 16:47:00,88.0,68.2,29.50,SE,143,7.0,12.0,52,0.00,,SKC,0.00,501.00,VWS V14.01,2013-10-04 21:47:00,
2013-10-04 16:50:00,88.4,68.0,29.49,SSE,148,12.0,15.0,51,0.00,,SKC,0.00,476.00,VWS V14.01,2013-10-04 21:50:00,
2013-10-04 16:52:00,88.4,68.0,29.50,SSE,159,6.0,12.0,51,0.00,,SKC,0.00,476.00,VWS V14.01,2013-10-04 21:52:00,
2013-10-04 16:57:00,88.2,67.2,29.49,South,171,11.0,13.0,50,0.00,,SKC,0.00,454.00,VWS V14.01,2013-10-04 21:57:00,
2013-10-04 17:00:00,88.2,67.8,29.49,SSE,157,6.0,15.0,51,0.00,,SKC,0.00,434.00,VWS V14.01,2013-10-04 22:00:00,
2013-10-04 17:02:00,88.2,67.8,29.49,SSE,151,6.0,9.0,51,0.00,,SKC,0.00,431.00,VWS V14.01,2013-10-04 22:02:00,
2013-10-04 17:07:00,88.3,67.3,29.50,SSE,157,6.0,12.0,50,0.00,,SKC,0.00,415.00,VWS V14.01,2013-10-04 22:07:00,
2013-10-04 17:10:00,88.1,67.1,29.49,South,169,5.0,12.0,50,0.00,,SKC,0.00,369.00,VWS V14.01,2013-10-04 22:10:00,
2013-10-04 17:12:00,88.1,67.7,29.49,South,172,6.0,7.0,51,0.00,,SKC,0.00,369.00,VWS V14.01,2013-10-04 22:12:00,
2013-10-04 17:17:00,88.0,67.6,29.49,SE,145,6.0,17.0,51,0.00,,SKC,0.00,385.00,VWS V14.01,2013-10-04 22:17:00,
2013-10-04 17:20:00,87.9,67.5,29.49,South,169,7.0,17.0,51,0.00,,SKC,0.00,364.00,VWS V14.01,2013-10-04 22:20:00,
2013-10-04 17:22:00,87.9,66.9,29.49,South,169,7.0,8.0,50,0.00,,SKC,0.00,364.00,VWS V14.01,2013-10-04 22:22:00,
2013-10-04 17:27:00,87.8,67.4,29.49,SE,138,6.0,13.0,51,0.00,,SKC,0.00,353.00,VWS V14.01,2013-10-04 22:27:00,
2013-10-04 17:30:00,87.7,67.3,29.49,SE,139,6.0,13.0,51,0.00,,SKC,0.00,329.00,VWS V14.01,2013-10-04 22:30:00,
2013-10-04 17:32:00,87.7,67.3,29.49,SE,139,8.0,8.0,51,0.00,,SKC,0.00,325.00,VWS V14.01,2013-10-04 22:32:00,
2013-10-04 17:37:00,87.9,67.5,29.49,SE,135,14.0,14.0,51,0.00,,SKC,0.00,309.00,VWS V14.01,2013-10-04 22:37:00,
2013-10-04 17:40:00,87.8,67.4,29.50,SE,146,8.0,14.0,51,0.00,,SKC,0.00,294.00,VWS V14.01,2013-10-04 22:40:00,
2013-10-04 17:42:00,87.7,67.3,29.50,SE,146,6.0,8.0,51,0.00,,SKC,0.00,290.00,VWS V14.01,2013-10-04 22:42:00,
2013-10-04 17:47:00,87.5,67.7,29.49,SE,145,5.0,8.0,52,0.00,,SKC,0.00,278.00,VWS V14.01,2013-10-04 22:47:00,
2013-10-04 17:50:00,87.5,67.2,29.50,SE,130,5.0,12.0,51,0.00,,SKC,0.00,258.00,VWS V14.01,2013-10-04 22:50:00,
2013-10-04 17:52:00,87.5,67.7,29.49,SE,130,5.0,5.0,52,0.00,,SKC,0.00,258.00,VWS V14.01,2013-10-04 22:52:00,
2013-10-04 17:57:00,87.3,67.5,29.50,SSE,157,12.0,12.0,52,0.00,,SKC,0.00,241.00,VWS V14.01,2013-10-04 22:57:00,
2013-10-04 18:00:00,87.0,67.3,29.50,SSE,152,4.0,13.0,52,0.00,,SKC,0.00,227.00,VWS V14.01,2013-10-04 23:00:00,
2013-10-04 18:02:00,87.0,67.3,29.50,SSE,152,4.0,5.0,52,0.00,,SKC,0.00,221.00,VWS V14.01,2013-10-04 23:02:00,
2013-10-04 18:07:00,87.0,67.3,29.50,South,182,9.0,9.0,52,0.00,,SKC,0.00,200.00,VWS V14.01,2013-10-04 23:07:00,
2013-10-04 18:10:00,86.9,67.2,29.50,SSE,167,6.0,9.0,52,0.00,,SKC,0.00,181.00,VWS V14.01,2013-10-04 23:10:00,
2013-10-04 18:12:00,86.9,67.2,29.50,SSE,167,4.0,6.0,52,0.00,,SKC,0.00,178.00,VWS V14.01,2013-10-04 23:12:00,
2013-10-04 18:17:00,86.7,67.5,29.50,SSE,161,5.0,8.0,53,0.00,,SKC,0.00,158.00,VWS V14.01,2013-10-04 23:17:00,
2013-10-04 18:20:00,86.5,67.4,29.50,SSE,147,2.0,11.0,53,0.00,,SKC,0.00,139.00,VWS V14.01,2013-10-04 23:20:00,
2013-10-04 18:22:00,86.5,67.3,29.50,SSE,147,5.0,5.0,53,0.00,,SKC,0.00,139.00,VWS V14.01,2013-10-04 23:22:00,
2013-10-04 18:27:00,86.4,66.7,29.50,SE,136,5.0,13.0,52,0.00,,SKC,0.00,118.00,VWS V14.01,2013-10-04 23:27:00,
2013-10-04 18:30:00,86.2,67.1,29.50,SSE,148,6.0,13.0,53,0.00,,SKC,0.00,98.00,VWS V14.01,2013-10-04 23:30:00,
2013-10-04 18:32:00,86.1,67.0,29.50,SE,140,10.0,10.0,53,0.00,,SKC,0.00,98.00,VWS V14.01,2013-10-04 23:32:00,
2013-10-04 18:37:00,85.8,67.2,29.50,SE,145,5.0,10.0,54,0.00,,SKC,0.00,79.00,VWS V14.01,2013-10-04 23:37:00,
2013-10-04 18:40:00,85.5,67.5,29.50,SSE,148,0.0,11.0,55,0.00,,SKC,0.00,65.00,VWS V14.01,2013-10-04 23:40:00,
2013-10-04 18:42:00,85.5,67.5,29.50,SSE,148,4.0,4.0,55,0.00,,SKC,0.00,62.00,VWS V14.01,2013-10-04 23:42:00,
2013-10-04 18:47:00,85.3,67.3,29.50,SE,132,9.0,12.0,55,0.00,,SKC,0.00,47.00,VWS V14.01,2013-10-04 23:47:00,
2013-10-04 18:50:00,85.1,67.1,29.51,SSE,151,5.0,12.0,55,0.00,,SKC,0.00,33.00,VWS V14.01,2013-10-04 23:50:00,
2013-10-04 18:52:00,85.1,67.1,29.51,SSE,151,4.0,6.0,55,0.00,,SKC,0.00,33.00,VWS V14.01,2013-10-04 23:52:00,
2013-10-04 18:57:00,84.7,67.3,29.51,SSE,150,5.0,7.0,56,0.00,,SKC,0.00,23.00,VWS V14.01,2013-10-04 23:57:00,
2013-10-04 19:00:00,84.4,67.5,29.51,SSE,147,1.0,10.0,57,0.00,,SKC,0.00,16.00,VWS V14.01,2013-10-05 00:00:00,
2013-10-04 19:02:00,84.4,67.5,29.51,SSE,147,4.0,4.0,57,0.00,,SKC,0.00,16.00,VWS V14.01,2013-10-05 00:02:00,
2013-10-04 19:07:00,84.0,67.1,29.52,SE,146,7.0,7.0,57,0.00,,SKC,0.00,12.00,VWS V14.01,2013-10-05 00:07:00,
2013-10-04 19:10:00,83.8,67.5,29.51,SE,143,6.0,11.0,58,0.00,,SKC,0.00,9.00,VWS V14.01,2013-10-05 00:10:00,
2013-10-04 19:12:00,83.8,67.5,29.51,SE,142,4.0,6.0,58,0.00,,SKC,0.00,7.00,VWS V14.01,2013-10-05 00:12:00,
2013-10-04 19:17:00,83.5,67.2,29.51,SE,142,6.0,9.0,58,0.00,,SKC,0.00,0.00,VWS V14.01,2013-10-05 00:17:00,
2013-10-04 19:20:00,83.4,67.1,29.52,SE,144,4.0,12.0,58,0.00,,SKC,0.00,0.00,VWS V14.01,2013-10-05 00:20:00,
2013-10-04 19:22:00,83.4,67.1,29.52,SE,144,2.0,5.0,58,0.00,,SKC,0.00,0.00,VWS V14.01,2013-10-05 00:22:00,
2013-10-04 19:27:00,83.2,67.4,29.52,SE,143,0.0,8.0,59,0.00,,SKC,0.00,0.00,VWS V14.01,2013-10-05 00:27:00,
2013-10-04 19:30:00,82.8,67.0,29.52,SE,143,4.0,8.0,59,0.00,,SKC,0.00,0.00,VWS V14.01,2013-10-05 00:30:00,
2013-10-04 19:32:00,82.8,67.5,29.52,SE,143,1.0,4.0,60,0.00,,SKC,0.00,0.00,VWS V14.01,2013-10-05 00:32:00,
2013-10-04 19:37:00,82.6,67.3,29.52,SE,142,4.0,9.0,60,0.00,,SKC,0.00,0.00,VWS V14.01,2013-10-05 00:37:00,
2013-10-04 19:40:00,82.4,67.1,29.52,SE,130,2.0,11.0,60,0.00,,SKC,0.00,0.00,VWS V14.01,2013-10-05 00:40:00,
2013-10-04 19:42:00,82.5,67.2,29.52,SE,130,4.0,4.0,60,0.00,,SKC,0.00,0.00,VWS V14.01,2013-10-05 00:42:00,
2013-10-04 19:47:00,82.3,67.5,29.53,SE,130,2.0,8.0,61,0.00,,SKC,0.00,0.00,VWS V14.01,2013-10-05 00:47:00,
2013-10-04 19:50:00,82.1,67.3,29.53,SE,130,4.0,8.0,61,0.00,,SKC,0.00,0.00,VWS V14.01,2013-10-05 00:50:00,
2013-10-04 19:52:00,82.1,67.3,29.53,SE,130,2.0,4.0,61,0.00,,SKC,0.00,0.00,VWS V14.01,2013-10-05 00:52:00,
2013-10-04 19:57:00,81.9,67.1,29.53,SE,130,8.0,8.0,61,0.00,,SKC,0.00,0.00,VWS V14.01,2013-10-05 00:57:00,
2013-10-04 20:00:00,81.8,67.5,29.53,SE,130,2.0,8.0,62,0.00,,SKC,0.00,0.00,VWS V14.01,2013-10-05 01:00:00,
2013-10-04 20:02:00,81.8,67.5,29.53,SE,130,6.0,6.0,62,0.00,,SKC,0.00,0.00,VWS V14.01,2013-10-05 01:02:00,
2013-10-04 20:07:00,81.5,67.2,29.53,SE,130,4.0,7.0,62,0.00,,SKC,0.00,0.00,VWS V14.01,2013-10-05 01:07:00,
2013-10-04 20:10:00,81.4,67.1,29.53,SE,130,6.0,11.0,62,0.00,,SKC,0.00,0.00,VWS V14.01,2013-10-05 01:10:00,
2013-10-04 20:12:00,81.4,67.1,29.53,SE,130,5.0,7.0,62,0.00,,SKC,0.00,0.00,VWS V14.01,2013-10-05 01:12:00,
2013-10-04 20:17:00,81.3,67.5,29.53,SE,130,4.0,8.0,63,0.00,,SKC,0.00,0.00,VWS V14.01,2013-10-05 01:17:00,
2013-10-04 20:20:00,81.1,67.3,29.53,SE,130,5.0,8.0,63,0.00,,SKC,0.00,0.00,VWS V14.01,2013-10-05 01:20:00,
2013-10-04 20:22:00,81.1,67.3,29.54,SE,130,4.0,5.0,63,0.00,,SKC,0.00,0.00,VWS V14.01,2013-10-05 01:22:00,
2013-10-04 20:27:00,80.9,67.1,29.53,SE,130,4.0,7.0,63,0.00,,SKC,0.00,0.00,VWS V14.01,2013-10-05 01:27:00,
2013-10-04 20:30:00,80.7,66.9,29.54,SE,128,5.0,9.0,63,0.00,,SKC,0.00,0.00,VWS V14.01,2013-10-05 01:30:00,
2013-10-04 20:32:00,80.7,66.9,29.53,SE,128,4.0,5.0,63,0.00,,SKC,0.00,0.00,VWS V14.01,2013-10-05 01:32:00,
2013-10-04 20:37:00,80.6,67.3,29.54,SE,128,4.0,9.0,64,0.00,,SKC,0.00,0.00,VWS V14.01,2013-10-05 01:37:00,
2013-10-04 20:40:00,80.4,67.1,29.54,SE,128,8.0,9.0,64,0.00,,SKC,0.00,0.00,VWS V14.01,2013-10-05 01:40:00,
2013-10-04 20:42:00,80.4,67.1,29.54,SE,128,6.0,8.0,64,0.00,,SKC,0.00,0.00,VWS V14.01,2013-10-05 01:42:00,
2013-10-04 20:47:00,80.3,67.0,29.54,SE,126,5.0,9.0,64,0.00,,SKC,0.00,0.00,VWS V14.01,2013-10-05 01:47:00,
2013-10-04 20:50:00,80.2,67.4,29.54,SE,125,7.0,12.0,65,0.00,,SKC,0.00,0.00,VWS V14.01,2013-10-05 01:50:00,
2013-10-04 20:52:00,80.2,67.4,29.54,SE,125,5.0,7.0,65,0.00,,SKC,0.00,0.00,VWS V14.01,2013-10-05 01:52:00,
2013-10-04 20:57:00,80.1,67.3,29.55,ESE,121,2.0,12.0,65,0.00,,SKC,0.00,0.00,VWS V14.01,2013-10-05 01:57:00,
2013-10-04 21:00:00,80.0,67.2,29.55,SE,128,5.0,12.0,65,0.00,,SKC,0.00,0.00,VWS V14.01,2013-10-05 02:00:00,
2013-10-04 21:02:00,80.0,67.2,29.55,SE,128,4.0,12.0,65,0.00,,SKC,0.00,0.00,VWS V14.01,2013-10-05 02:02:00,
2013-10-04 21:07:00,79.8,67.4,29.55,SE,127,5.0,9.0,66,0.00,,SKC,0.00,0.00,VWS V14.01,2013-10-05 02:07:00,
2013-10-04 21:10:00,79.7,67.3,29.55,SE,126,7.0,11.0,66,0.00,,SKC,0.00,0.00,VWS V14.01,2013-10-05 02:10:00,
2013-10-04 21:12:00,79.7,67.3,29.55,SE,126,6.0,7.0,66,0.00,,SKC,0.00,0.00,VWS V14.01,2013-10-05 02:12:00,
2013-10-04 21:17:00,79.7,67.3,29.55,SE,129,7.0,12.0,66,0.00,,SKC,0.00,0.00,VWS V14.01,2013-10-05 02:17:00,
2013-10-04 21:20:00,79.6,67.2,29.55,SE,128,6.0,12.0,66,0.00,,SKC,0.00,0.00,VWS V14.01,2013-10-05 02:20:00,
2013-10-04 21:22:00,79.6,67.2,29.55,SE,128,5.0,6.0,66,0.00,,SKC,0.00,0.00,VWS V14.01,2013-10-05 02:22:00,
2013-10-04 21:27:00,79.5,67.2,29.55,SE,126,5.0,9.0,66,0.00,,SKC,0.00,0.00,VWS V14.01,2013-10-05 02:27:00,
2013-10-04 21:30:00,79.4,67.1,29.55,SE,143,6.0,11.0,66,0.00,,SKC,0.00,0.00,VWS V14.01,2013-10-05 02:30:00,
2013-10-04 21:32:00,79.4,67.1,29.55,SE,143,4.0,6.0,66,0.00,,SKC,0.00,0.00,VWS V14.01,2013-10-05 02:32:00,
2013-10-04 21:37:00,79.4,67.1,29.55,SE,140,8.0,11.0,66,0.00,,SKC,0.00,0.00,VWS V14.01,2013-10-05 02:37:00,
2013-10-04 21:40:00,79.5,67.2,29.55,SE,133,5.0,12.0,66,0.00,,SKC,0.00,0.00,VWS V14.01,2013-10-05 02:40:00,
2013-10-04 21:42:00,79.5,67.2,29.55,SE,133,5.0,5.0,66,0.00,,SKC,0.00,0.00,VWS V14.01,2013-10-05 02:42:00,
2013-10-04 21:47:00,79.5,67.2,29.55,SE,131,7.0,12.0,66,0.00,,SKC,0.00,0.00,VWS V14.01,2013-10-05 02:47:00,
2013-10-04 21:50:00,79.5,67.2,29.55,SE,132,6.0,12.0,66,0.00,,SKC,0.00,0.00,VWS V14.01,2013-10-05 02:50:00,
2013-10-04 21:52:00,79.5,67.2,29.55,SE,132,6.0,12.0,66,0.00,,SKC,0.00,0.00,VWS V14.01,2013-10-05 02:52:00,
2013-10-04 21:57:00,79.5,67.2,29.55,SE,135,7.0,11.0,66,0.00,,SKC,0.00,0.00,VWS V14.01,2013-10-05 02:57:00,
2013-10-04 22:00:00,79.5,67.2,29.55,SSE,150,5.0,17.0,66,0.00,,SKC,0.00,0.00,VWS V14.01,2013-10-05 03:00:00,
2013-10-04 22:02:00,79.5,67.2,29.55,SSE,150,5.0,17.0,66,0.00,,SKC,0.00,0.00,VWS V14.01,2013-10-05 03:02:00,
2013-10-04 22:07:00,79.4,67.1,29.56,SSE,150,5.0,9.0,66,0.00,,SKC,0.00,0.00,VWS V14.01,2013-10-05 03:07:00,
2013-10-04 22:10:00,79.3,67.0,29.56,SSE,149,5.0,9.0,66,0.00,,SKC,0.00,0.00,VWS V14.01,2013-10-05 03:10:00,
2013-10-04 22:11:00,79.3,67.0,29.56,SSE,149,5.0,9.0,66,0.00,,SKC,0.00,0.00,VWS V14.01,2013-10-05 03:11:00,
2013-10-04 22:16:00,79.3,67.0,29.56,SSE,148,7.0,12.0,66,0.00,,SKC,0.00,0.00,VWS V14.01,2013-10-05 03:16:00,
2013-10-04 22:20:00,79.1,67.2,29.56,SSE,148,6.0,12.0,67,0.00,,SKC,0.00,0.00,VWS V14.01,2013-10-05 03:20:00,
2013-10-04 22:21:00,79.1,67.2,29.56,SSE,148,6.0,12.0,67,0.00,,SKC,0.00,0.00,VWS V14.01,2013-10-05 03:21:00,
2013-10-04 22:26:00,79.1,67.2,29.56,SSE,148,5.0,9.0,67,0.00,,SKC,0.00,0.00,VWS V14.01,2013-10-05 03:26:00,
2013-10-04 22:30:00,79.0,67.1,29.56,SSE,148,2.0,9.0,67,0.00,,SKC,0.00,0.00,VWS V14.01,2013-10-05 03:30:00,
2013-10-04 22:31:00,79.0,67.1,29.56,SSE,148,2.0,9.0,67,0.00,,SKC,0.00,0.00,VWS V14.01,2013-10-05 03:31:00,
2013-10-04 22:36:00,78.9,67.0,29.56,SE,142,6.0,13.0,67,0.00,,SKC,0.00,0.00,VWS V14.01,2013-10-05 03:36:00,
2013-10-04 22:40:00,78.8,66.9,29.56,SE,142,5.0,13.0,67,0.00,,SKC,0.00,0.00,VWS V14.01,2013-10-05 03:40:00,
2013-10-04 22:41:00,78.8,66.9,29.56,SE,142,5.0,13.0,67,0.00,,SKC,0.00,0.00,VWS V14.01,2013-10-05 03:41:00,
2013-10-04 22:46:00,78.6,67.2,29.56,SE,139,6.0,9.0,68,0.00,,SKC,0.00,0.00,VWS V14.01,2013-10-05 03:46:00,
2013-10-04 22:50:00,78.5,67.5,29.56,SE,133,7.0,13.0,69,0.00,,SKC,0.00,0.00,VWS V14.01,2013-10-05 03:50:00,
2013-10-04 22:51:00,78.5,67.5,29.56,SE,133,7.0,13.0,69,0.00,,SKC,0.00,0.00,VWS V14.01,2013-10-05 03:51:00,
2013-10-04 22:56:00,78.4,67.8,29.56,SE,134,5.0,16.0,70,0.00,,SKC,0.00,0.00,VWS V14.01,2013-10-05 03:56:00,
2013-10-04 23:00:00,78.2,68.0,29.56,SE,134,5.0,16.0,71,0.00,,SKC,0.00,0.00,VWS V14.01,2013-10-05 04:00:00,
2013-10-04 23:01:00,78.2,68.0,29.56,SE,135,2.0,16.0,71,0.00,,SKC,0.00,0.00,VWS V14.01,2013-10-05 04:01:00,
2013-10-04 23:06:00,78.0,68.2,29.56,SE,135,7.0,13.0,72,0.00,,SKC,0.00,0.00,VWS V14.01,2013-10-05 04:06:00,
2013-10-04 23:10:00,77.8,68.5,29.56,SE,131,9.0,13.0,73,0.00,,SKC,0.00,0.00,VWS V14.01,2013-10-05 04:10:00,
2013-10-04 23:11:00,77.8,68.5,29.56,SE,131,9.0,13.0,73,0.00,,SKC,0.00,0.00,VWS V14.01,2013-10-05 04:11:00,
2013-10-04 23:16:00,77.7,68.8,29.56,SE,131,6.0,15.0,74,0.00,,SKC,0.00,0.00,VWS V14.01,2013-10-05 04:16:00,
2013-10-04 23:20:00,77.5,69.0,29.56,SE,145,4.0,15.0,75,0.00,,SKC,0.00,0.00,VWS V14.01,2013-10-05 04:20:00,
2013-10-04 23:21:00,77.5,69.0,29.56,SE,146,7.0,15.0,75,0.00,,SKC,0.00,0.00,VWS V14.01,2013-10-05 04:21:00,
2013-10-04 23:26:00,77.4,68.9,29.55,SE,130,12.0,12.0,75,0.00,,SKC,0.00,0.00,VWS V14.01,2013-10-05 04:26:00,
2013-10-04 23:30:00,77.2,69.1,29.55,SE,138,11.0,16.0,76,0.00,,SKC,0.00,0.00,VWS V14.01,2013-10-05 04:30:00,
2013-10-04 23:31:00,77.2,69.1,29.55,SE,126,7.0,16.0,76,0.00,,SKC,0.00,0.00,VWS V14.01,2013-10-05 04:31:00,
2013-10-04 23:36:00,77.1,69.3,29.54,SE,133,6.0,17.0,77,0.00,,SKC,0.00,0.00,VWS V14.01,2013-10-05 04:36:00,
2013-10-04 23:40:00,76.9,69.5,29.55,SE,142,7.0,17.0,78,0.00,,SKC,0.00,0.00,VWS V14.01,2013-10-05 04:40:00,
2013-10-04 23:41:00,76.9,69.5,29.55,SSE,153,8.0,17.0,78,0.00,,SKC,0.00,0.00,VWS V14.01,2013-10-05 04:41:00,
2013-10-04 23:46:00,76.7,69.3,29.55,SE,130,6.0,11.0,78,0.00,,SKC,0.00,0.00,VWS V14.01,2013-10-05 04:46:00,
2013-10-04 23:50:00,76.6,69.6,29.55,SE,139,2.0,13.0,79,0.00,,SKC,0.00,0.00,VWS V14.01,2013-10-05 04:50:00,
2013-10-04 23:51:00,76.6,69.6,29.55,SE,141,8.0,13.0,79,0.00,,SKC,0.00,0.00,VWS V14.01,2013-10-05 04:51:00,
2013-10-04 23:56:00,76.5,69.9,29.55,SSE,157,8.0,12.0,80,0.00,,SKC,0.00,0.00,VWS V14.01,2013-10-05 04:56:00,